Location: ????????
(55.8351°N, 38.7040°E)
Time: 13:11:29
(UTC+00:00)

H-2A R/B - Pass Details

Date: 14 April 2024
Orbit: 732 x 833 km, 98.2° (Epoch: 23 May)

Event Time Altitude Azimuth Distance (km) Brightness Sun altitude
Rises 01:20:00 0° 20° (NNE) 3,186 6.1 -8.7°
Reaches altitude 10° 01:22:29 10° 29° (NNE) 2,266 5.5 -8.4°
Maximum altitude 01:27:02 35° 95° (E) 1,209 3.7 -7.9°
Drops below altitude 10° 01:31:38 10° 161° (SSE) 2,297 4.4 -7.3°
Sets 01:34:08 0° 170° (S) 3,235 5.0 -7.0°
